Regional Weather Roundup
Issued by NWS Charleston, WV

Home | Current Version | Previous Version | Graphics & Text | Print | Product List | Glossary On
Versions: 1 2 3 4 5 6 7 8 9 10 11 12 13 14 15 16 17 18 19 20 21 22 23 24 25 26 27 28 29 30 31 32 33 34 35 36 37 38 39 40 41 42 43 44 45 46 47 48 49 50
420
ASUS41 KRLX 200610
RWRRLX
West Virginia Regional Weather Roundup
National Weather Service Charleston WV
Issued by National Weather Service Pittsburgh PA
100 AM EST MON NOV 20 2017

Note: "fair" indicates few or no clouds below 12,000 feet with no
significant weather and/or obstructions to visibility.

WVZ003-200700-
Northern Panhandle of West Virginia

CITY           SKY/WX    TMP DP  RH WIND       PRES   REMARKS
WHEELING       CLOUDY    31  22  69 W14       30.06R WCI  21
$$

WVZ009-200700-
Northwest West Virginia

CITY           SKY/WX    TMP DP  RH WIND       PRES   REMARKS
PARKERSBURG    MOCLDY    31  20  63 VRB5      30.17R WCI  26
$$

WVZ006-200700-
Western West Virginia

CITY           SKY/WX    TMP DP  RH WIND       PRES   REMARKS
HUNTINGTON     CLEAR     31  24  75 SW5       30.19R WCI  26
$$

WVZ015-200700-
West Central West Virginia

CITY           SKY/WX    TMP DP  RH WIND       PRES   REMARKS
CHARLESTON     CLOUDY    35  24  64 W12       30.17R WCI  27
$$

WVZ031-200700-
North Central West Virginia

CITY           SKY/WX    TMP DP  RH WIND       PRES   REMARKS
CLARKSBURG     CLOUDY    33  20  58 W9G22     30.10R WCI  25
MORGANTOWN     CLOUDY    33  20  58 VRB7      30.07R WCI  27
$$

WVZ035-042-200700-
South Central West Virginia

CITY           SKY/WX    TMP DP  RH WIND       PRES   REMARKS
BECKLEY        MOCLDY    29  20  69 W10       30.09R WCI  20
BLUEFIELD      CLOUDY    27  19  72 W16G26    30.09R WCI  15
$$

WVZ045-200700-
Greenbrier Valley of West Virginia

CITY           SKY/WX    TMP DP  RH WIND       PRES   REMARKS
LEWISBURG      CLEAR     31  21  66 NW8G21    30.07R WCI  24
$$

WVZ047-200700-
Northern Mountains of West Virginia

CITY           SKY/WX    TMP DP  RH WIND       PRES   REMARKS
ELKINS         CLOUDY    31  20  63 W10G21    30.07R WCI  22
$$

WVZ052-200700-
Eastern Panhandle of West Virginia

CITY           SKY/WX    TMP DP  RH WIND       PRES   REMARKS
MARTINSBURG    CLOUDY    39  24  55 NW20      29.99R
PETERSBURG     MOCLDY    37  21  53 W17       30.02S
$$




USA.gov is the U.S. government's official web portal to all federal, state and local government web resources and services.